Lapse_Rate
-4.0 -4.4 -4.7 -4.8 -4.8 -4.9 -5.0 -5.1 -5.2 -5.3 -5.5 -5.6 -5.7 -6.0 -6.2 -6.3 -6.0 -4.4 1.3 4.0 3.0 1.7 1.1 5.6 5.7 6.2 7.0 6.3 6.0 5.5 6.5 6.5 6.5 6.5 6.5 5.9 6.4 6.9 6.6 6.5 7.0 7.0 4.7 4.3 4.6
-4.2 -4.5 -4.7 -4.7 -4.8 -4.9 -5.1 -5.3 -5.5 -5.7 -5.9 -6.0 -6.1 -6.2 -6.4 -6.5 -4.5 -0.8 1.7 2.8 2.6 1.5 5.4 6.6 6.1 6.5 4.6 5.9 5.1 6.0 6.5 6.5 6.5 6.5 6.5 6.2 6.0 5.9 6.1 6.5 6.5 6.0 5.3 4.8 5.2
-4.2 -4.5 -4.7 -4.8 -4.9 -5.0 -5.2 -5.5 -5.7 -6.0 -6.3 -6.3 -6.4 -6.3 -6.4 -6.7 -0.2 4.4 2.3 1.9 2.0 1.4 5.8 6.7 6.2 5.8 5.9 5.7 6.2 6.2 6.5 6.5 6.4 6.1 6.1 6.0 6.1 6.3 6.2 6.5 5.8 5.5 5.4 5.5 5.7
-4.3 -4.6 -4.8 -5.0 -5.2 -5.2 -5.4 -5.6 -5.9 -6.4 -6.5 -6.5 -6.5 -6.4 -6.6 -5.1 6.5 6.1 0.9 1.3 1.6 3.8 5.8 5.6 4.5 4.6 6.3 6.5 6.1 6.5 6.3 6.4 5.3 5.9 6.2 6.4 5.0 6.0 5.6 5.5 5.1 5.2 5.5 5.7 6.2
-4.3 -4.7 -5.0 -5.2 -5.4 -5.6 -5.6 -5.8 -6.1 -6.4 -6.6 -6.7 -6.5 -6.3 -4.9 2.4 3.5 2.4 1.0 1.1 3.3 5.0 6.1 5.3 5.2 4.8 6.5 6.5 6.3 6.5 6.5 6.3 5.4 5.9 6.1 5.9 5.8 6.2 6.0 4.2 4.6 6.0 6.3 6.7 6.6
-4.5 -5.0 -5.3 -5.5 -5.6 -5.8 -5.9 -6.0 -6.4 -6.6 -6.7 -6.5 -6.3 -6.0 -1.0 5.9 5.2 2.2 2.2 2.8 4.7 5.2 5.9 5.6 5.8 5.1 5.7 6.3 6.4 6.3 6.3 6.4 6.1 5.9 6.4 6.4 6.3 5.5 5.6 4.6 5.6 6.5 6.6 6.0 5.9
-4.6 -4.9 -5.3 -5.7 -5.9 -6.1 -6.2 -6.2 -6.5 -6.7 -6.7 -6.4 -6.1 -3.7 1.4 3.9 5.1 2.3 2.3 3.1 4.0 4.9 5.6 5.8 5.6 6.1 5.1 6.5 5.3 5.7 6.5 6.5 6.3 6.0 6.4 5.0 6.5 6.5 5.5 5.1 5.9 6.1 6.6 6.9 5.7
-4.5 -5.0 -5.4 -5.8 -6.2 -6.6 -6.6 -6.7 -6.8 -6.6 -6.2 -5.9 -5.5 -2.3 2.1 4.1 2.7 3.4 2.9 4.6 3.2 4.1 4.5 5.6 4.9 6.1 5.6 5.7 6.2 6.5 6.5 6.5 6.5 6.4 6.1 5.8 6.5 6.5 5.6 5.3 6.4 6.7 6.9 6.3 6.5
-4.3 -4.9 -5.5 -6.1 -6.9 -7.4 -7.3 -7.4 -6.7 -5.9 -5.4 -4.6 -2.5 1.1 3.5 3.5 3.5 2.6 2.8 4.8 4.5 4.2 3.8 7.0 6.0 4.9 6.0 6.5 6.5 6.5 6.5 6.5 6.5 6.3 6.5 6.5 6.5 6.4 5.9 6.0 6.4 6.6 6.7 6.9 5.9
-4.2 -4.9 -5.5 -6.1 -6.9 -7.5 -7.9 -7.5 -6.0 -5.0 -4.2 -1.8 1.7 4.0 3.0 6.0 5.6 3.1 2.0 4.6 6.2 5.4 5.7 5.3 5.1 6.5 6.5 6.5 6.5 6.5 6.5 6.5 6.5 6.5 6.5 6.5 6.5 6.5 6.4 6.4 6.4 6.5 6.6 6.8 6.4
-3.8 -4.5 -5.3 -6.0 -7.0 -7.8 -9.0 -3.8 1.9 3.3 2.3 4.3 4.3 4.0 5.0 6.0 6.4 5.3 4.0 4.7 6.4 6.6 6.5 5.9 6.5 6.5 6.5 6.5 6.5 6.5 6.5 6.5 6.5 6.5 6.5 6.5 6.5 6.5 6.3 6.3 6.1 6.3 6.5 6.6 6.4
-3.9 -4.5 -5.2 -6.0 -7.2 -7.9 -9.2 1.6 5.4 5.3 4.8 2.9 2.7 3.8 4.8 6.0 6.1 4.9 4.9 5.4 5.7 6.5 6.4 6.5 6.5 6.5 6.5 6.5 6.5 6.5 6.5 6.5 6.5 6.5 6.5 6.5 6.5 6.5 6.5 6.4 6.4 6.5 6.5 6.6 6.4
-4.2 -4.6 -5.4 -6.1 -7.7 -7.9 -2.9 2.2 1.8 0.7 4.7 4.2 3.5 3.6 4.6 3.8 4.8 4.1 4.6 4.8 6.4 6.5 6.5 6.5 6.5 6.4 6.5 6.5 6.5 6.5 6.5 6.5 6.5 6.5 6.5 6.5 6.5 6.5 6.5 6.2 6.4 6.6 6.6 6.6 6.2
-4.2 -4.9 -5.6 -7.2 -2.8 -5.9 -0.5 1.1 -1.5 -0.2 6.5 6.5 5.9 4.3 4.9 5.1 5.9 4.6 4.1 5.3 6.3 6.5 6.5 6.5 6.4 6.5 6.5 6.5 6.5 6.5 6.5 6.5 6.5 6.5 6.5 6.5 6.5 6.5 6.5 6.5 6.5 6.2 6.3 6.2 6.1
-4.1 -4.8 -5.8 -6.8 -5.1 -0.9 2.6 -3.5 -1.6 1.8 6.5 6.5 6.0 5.5 3.4 4.9 5.8 5.7 4.4 5.4 6.5 6.5 6.5 6.5 6.5 6.5 6.5 6.5 6.5 6.5 6.5 6.5 6.5 6.5 6.5 6.5 6.5 6.5 6.5 6.5 6.5 6.3 6.4 6.4 6.1
-4.5 -4.9 -6.2 -6.6 -8.2 -4.6 -3.9 -3.7 1.5 6.5 6.5 6.5 5.9 6.3 6.4 5.7 6.1 6.0 5.8 5.1 4.9 6.5 6.5 6.5 5.9 6.5 6.5 6.5 6.5 6.5 6.5 6.5 6.5 6.5 6.5 6.5 6.5 6.5 6.5 6.5 6.5 6.1 4.5 5.6 6.4
-5.0 -5.6 -6.6 -5.1 0.7 -3.2 -3.3 0.7 6.5 6.5 6.5 6.5 6.5 6.5 6.5 6.5 6.5 6.5 6.5 6.5 6.5 6.5 6.5 6.5 6.5 6.5 6.2 6.5 6.5 6.5 6.5 6.5 6.5 6.5 6.5 6.5 6.5 6.5 6.5 6.5 6.5 6.5 4.5 3.5 4.1
-6.0 -6.6 -6.9 -6.6 -4.9 -3.2 0.1 5.8 6.5 6.5 6.5 6.5 6.5 6.5 6.5 6.5 6.5 6.5 6.5 6.5 6.5 6.5 6.5 6.5 6.5 6.5 6.5 6.5 6.5 6.5 6.5 6.5 6.5 6.5 6.5 6.5 6.5 6.5 6.5 5.6 4.8 3.8 3.5 2.4 3.5
-6.4 -6.7 -6.9 -6.4 -6.7 -3.8 1.5 6.5 6.5 6.5 6.5 6.5 6.5 6.5 6.5 6.5 6.5 6.5 6.5 6.5 6.5 6.5 6.5 6.5 6.5 6.5 6.5 6.5 6.5 6.5 6.5 6.5 6.5 6.5 6.5 6.5 6.5 6.5 6.5 6.5 6.3 5.3 4.3 4.7 4.5
-7.3 -5.6 -3.3 -3.8 -3.9 -0.9 5.2 6.5 6.5 6.3 6.5 6.5 6.5 6.5 6.5 6.5 6.5 6.5 6.5 6.5 6.5 6.5 6.0 6.5 6.5 6.5 6.5 6.3 6.4 6.5 6.5 6.5 6.5 6.5 6.5 6.5 6.5 6.5 6.5 6.5 6.5 6.5 4.6 3.0 2.4
-4.6 0.7 0.7 -2.1 -0.9 0.4 6.5 6.5 6.5 4.9 6.0 6.5 6.5 6.5 6.5 6.5 6.5 6.5 6.5 6.5 6.5 6.5 5.8 6.5 6.5 6.5 6.5 6.5 6.5 6.5 6.5 6.5 6.5 6.5 6.5 6.5 6.5 6.5 6.5 6.5 6.5 6.4 5.0 3.9 1.3
-4.4 6.6 1.0 -0.1 3.7 3.8 6.5 6.5 5.3 6.4 5.1 6.5 6.5 6.5 6.5 6.5 6.5 6.5 6.5 6.5 5.4 6.3 6.5 6.5 6.5 6.5 6.5 6.5 6.5 6.5 6.5 6.5 6.5 6.5 6.5 6.5 6.5 6.5 6.5 6.4 6.3 6.1 5.9 5.0 4.7
-1.1 -1.2 0.8 2.3 6.5 6.5 6.1 6.5 6.2 6.5 6.5 6.5 6.5 6.5 6.5 6.5 6.5 6.5 6.5 6.2 5.3 6.5 6.5 6.5 6.5 6.5 6.5 6.5 6.5 6.5 6.5 6.5 6.5 6.5 6.5 6.5 6.5 6.5 6.1 6.2 5.9 5.4 3.5 1.9 1.9
-0.2 6.5 2.1 1.8 1.7 6.4 6.5 6.5 6.5 5.4 6.1 5.6 6.5 6.1 6.5 6.5 6.5 6.5 6.5 6.5 5.3 5.7 2.6 4.2 6.5 6.5 6.5 6.5 6.5 6.5 6.5 6.5 6.5 6.5 6.5 6.5 6.5 6.5 6.5 6.5 5.9 4.7 4.9 5.1 4.6
0.7 5.7 4.9 6.5 5.8 6.4 6.5 6.5 6.5 6.5 5.9 5.7 6.5 6.5 6.5 6.5 6.5 6.5 6.5 6.5 6.2 3.8 5.7 6.5 6.5 6.5 6.5 6.5 6.5 6.5 6.5 6.5 6.5 6.5 6.5 6.5 6.5 6.5 6.5 6.5 5.7 4.6 3.8 3.8 2.8
3.2 4.1 2.0 3.7 4.1 6.5 6.5 6.5 6.5 6.5 6.5 6.5 6.5 6.5 6.5 6.5 6.5 6.5 6.5 6.5 6.5 6.5 6.5 6.5 6.5 6.5 6.5 6.5 6.5 6.5 6.5 6.5 6.5 6.5 6.5 6.5 6.5 6.5 5.4 5.1 4.9 4.0 3.8 3.8 3.3
-0.6 2.0 3.4 4.4 6.0 6.5 6.5 6.5 6.5 6.4 5.6 5.5 6.3 6.5 6.5 6.5 4.6 4.1 3.8 3.4 6.0 6.5 6.5 6.5 6.5 6.5 6.5 6.5 6.5 6.5 6.5 6.5 6.5 6.5 6.5 6.5 6.5 6.5 6.5 6.2 5.7 4.1 3.0 2.5 1.9
Wind_Speed
17 17 17 16 16 15 15 15 14 14 13 14 15 15 15 16 19 2 5 8 5 6 4 5 4 5 1 2 3 2 4 2 2 0 5 3 4 2 3 13 4 7 7 7 19
18 18 17 17 16 16 16 16 15 15 15 15 15 15 13 13 3 6 10 5 10 8 3 2 3 5 3 2 2 3 3 3 3 3 2 5 7 9 5 6 1 5 9 19 20
18 18 18 18 17 17 16 17 17 16 16 16 15 14 12 8 3 5 6 9 9 12 3 2 3 3 3 1 3 1 2 2 7 6 11 6 4 2 12 4 6 12 19 20 20
18 19 19 19 18 18 17 17 17 18 18 16 15 14 14 2 2 2 12 12 11 4 2 2 2 3 3 1 1 3 7 4 8 3 8 4 5 6 6 6 10 15 23 22 20
19 20 20 20 19 19 18 18 18 18 18 16 15 13 3 3 7 5 12 10 5 4 3 2 3 2 1 2 0 1 4 5 10 11 10 7 10 6 5 8 14 17 18 23 21
20 21 21 21 21 21 19 19 19 20 17 14 12 10 2 4 1 13 9 7 5 4 4 4 3 3 2 3 4 4 5 9 8 10 6 2 3 8 4 13 15 19 19 19 22
21 21 21 22 22 22 21 21 20 20 17 13 9 3 1 10 2 8 8 6 4 4 3 4 6 2 3 4 4 4 6 11 12 4 5 9 1 6 11 16 18 17 19 18 19
22 22 22 22 23 23 24 23 22 21 14 10 6 2 6 2 4 6 5 3 3 6 2 5 7 2 2 5 5 5 3 5 8 8 5 7 10 5 14 17 17 17 17 18 18
22 23 23 23 23 24 26 26 23 13 5 6 1 1 8 2 4 7 6 5 6 5 5 3 4 3 2 2 5 3 2 6 7 6 4 6 7 8 16 15 16 17 18 18 17
23 23 23 23 23 24 27 24 2 5 2 3 4 3 4 3 4 6 6 5 2 1 4 4 2 2 3 4 4 3 5 5 6 3 10 6 11 8 17 17 19 18 18 18 19
24 24 24 23 23 22 12 2 3 2 1 7 5 4 5 6 4 5 6 6 1 1 3 2 4 6 9 9 12 5 3 9 16 8 5 11 10 10 18 14 13 16 17 19 21
25 25 25 25 22 19 1 2 2 3 7 10 9 7 5 4 5 5 8 6 6 6 1 4 5 10 10 8 9 7 6 8 9 6 3 2 8 6 17 23 24 20 19 21 18
27 26 26 28 28 2 2 5 1 6 2 7 6 6 5 8 8 7 11 6 4 4 4 5 9 10 8 10 12 5 5 5 3 5 6 5 7 2 12 19 16 18 15 17 20
27 26 25 34 1 4 4 3 8 4 4 6 4 8 6 6 5 7 8 6 2 8 5 6 3 3 4 6 3 6 3 6 2 4 2 4 6 6 4 8 13 19 18 19 19
28 25 20 11 4 2 4 8 7 3 1 2 4 1 4 9 2 4 4 4 8 6 4 8 4 6 7 5 4 9 2 5 2 3 1 3 3 7 4 7 11 16 21 19 19
31 24 18 2 1 7 12 9 4 5 5 2 5 6 6 2 1 1 4 4 3 3 1 8 2 3 7 5 5 9 2 4 5 3 4 4 5 7 5 6 7 6 14 20 19
33 27 9 2 4 5 6 4 5 3 5 1 5 4 3 6 3 2 4 2 6 2 5 8 11 4 4 6 3 5 6 4 5 5 5 3 2 9 9 8 11 18 8 17 19
38 30 8 5 7 5 3 5 3 4 6 4 2 3 6 3 4 4 4 6 4 4 3 6 9 3 5 7 5 2 7 5 6 4 6 4 4 6 3 10 11 13 7 9 12
33 2 2 4 15 2 5 3 7 6 3 7 3 5 1 4 5 5 6 5 7 9 10 6 7 4 4 3 6 3 4 5 5 2 3 4 8 9 15 17 18 14 11 12 9
4 4 4 5 15 4 4 5 4 4 4 4 2 1 4 2 5 5 7 5 8 13 4 5 5 6 4 3 3 7 4 2 2 3 5 5 4 5 13 14 17 14 8 7 7
2 4 3 5 2 5 4 7 5 6 3 5 2 2 5 4 4 5 4 4 2 2 10 7 7 16 2 3 7 2 3 3 4 5 4 2 5 5 9 9 7 8 9 10 10
4 2 3 2 4 1 3 5 3 3 2 4 3 8 6 7 6 5 5 4 5 2 6 7 5 6 13 6 3 4 5 5 5 5 2 4 5 4 5 7 4 8 10 9 9
2 3 3 4 2 2 4 4 3 4 5 4 4 5 1 6 4 3 1 3 6 4 0 6 0 2 8 6 4 2 2 4 5 3 3 4 4 1 6 7 9 10 8 8 6
2 2 4 3 0 4 3 7 4 3 7 6 7 6 4 5 2 6 3 1 5 5 7 7 3 6 6 7 4 3 2 2 6 4 3 5 5 3 4 5 7 7 7 9 6
2 1 2 2 2 2 2 4 6 4 4 2 4 7 9 7 5 4 1 2 4 8 4 4 2 2 5 6 3 4 6 2 5 4 5 3 7 4 3 3 6 7 8 7 7
2 3 4 2 4 3 4 1 5 3 5 7 6 8 6 6 8 7 5 2 2 5 3 3 3 1 3 0 4 4 4 6 6 3 5 5 3 0 5 5 7 7 7 7 8
3 3 3 3 4 1 2 3 6 8 7 10 6 5 5 6 6 6 4 4 6 7 2 1 4 3 4 4 4 4 2 8 6 5 1 3 1 5 6 6 4 8 8 9 9
Wind_Direction
348 348 346 346 343 343 341 338 335 329 322 316 315 316 320 322 312 181 245 216 147 242 152 269 225 247 110 69 74 77 60 58 210 306 284 174 134 182 106 142 191 176 143 162 149
347 345 343 342 341 341 339 336 332 325 319 317 316 318 322 326 292 255 246 228 221 183 222 267 310 32 66 20 41 75 101 221 210 276 303 294 158 161 123 167 317 86 95 131 145
344 341 340 339 339 338 338 333 326 321 318 317 316 319 317 315 285 245 189 182 174 186 280 353 54 36 91 321 8 330 213 318 278 285 281 223 175 143 128 209 200 162 144 151 158
344 340 338 337 336 334 333 328 321 316 314 315 314 317 315 234 216 310 147 165 176 206 254 113 57 59 55 44 2 11 248 217 282 308 348 213 161 128 159 218 162 164 157 158 168
342 339 336 336 334 330 328 323 315 310 310 312 313 320 323 309 252 154 132 135 154 171 204 107 26 109 160 171 190 165 269 250 257 278 282 225 188 177 214 125 134 150 152 169 174
345 341 337 334 330 325 323 317 311 306 305 305 305 315 320 297 148 150 136 132 196 184 194 176 180 239 126 216 201 221 263 277 248 249 262 175 190 126 166 141 150 164 165 174 177
343 340 336 332 328 323 320 312 307 302 302 296 294 281 293 239 329 155 144 176 189 196 211 201 146 200 151 324 219 262 316 322 273 225 207 128 273 223 158 157 168 181 181 181 189
341 339 336 331 328 322 316 310 305 298 292 275 259 249 252 240 135 152 164 195 234 246 268 339 135 155 212 303 306 298 90 349 289 138 194 149 253 229 166 161 180 185 195 194 202
339 337 335 333 329 321 315 310 302 287 214 149 145 170 269 48 184 197 163 211 177 212 228 222 91 206 350 38 346 347 253 218 283 211 131 161 243 202 175 181 185 193 197 202 205
336 334 330 329 328 322 320 307 259 109 165 202 261 340 279 241 219 172 192 225 263 293 305 126 152 259 69 74 260 287 319 313 256 266 205 171 249 176 184 190 198 199 200 206 208
335 331 327 324 324 326 341 14 27 16 233 207 197 245 292 304 311 198 165 144 223 328 227 70 81 244 258 208 237 269 258 278 282 253 161 215 245 193 195 203 210 211 211 208 215
333 331 327 323 321 319 238 41 67 141 302 239 239 257 272 66 307 294 120 159 149 221 347 23 248 233 242 258 229 201 242 267 289 38 141 163 255 222 186 210 210 205 212 216 219
331 332 330 324 320 103 282 231 2 314 191 289 211 219 189 150 207 256 147 172 170 203 204 182 244 321 322 323 329 202 185 261 229 341 2 18 311 294 218 223 219 223 219 222 216
330 331 333 327 17 322 268 267 304 210 42 270 228 260 148 148 274 219 176 142 222 223 203 234 315 105 328 305 322 325 237 237 194 58 286 39 289 294 312 247 212 221 217 221 220
328 329 331 337 290 262 296 318 309 64 343 161 209 15 165 155 233 245 169 81 194 216 116 249 302 335 316 252 19 260 315 283 127 112 104 340 48 267 342 285 253 218 226 221 218
324 326 327 151 274 250 317 318 53 45 255 309 159 165 129 167 251 64 136 66 158 208 289 252 270 195 229 262 195 260 213 44 46 83 10 222 120 292 279 238 297 267 211 219 215
323 317 297 261 230 324 311 40 49 156 308 310 211 152 166 170 202 166 136 149 177 118 289 307 280 240 197 300 14 76 54 338 346 6 225 103 114 236 284 322 270 283 218 213 210
324 313 215 211 265 349 59 57 194 244 263 347 322 86 161 153 254 209 174 225 246 135 112 202 316 204 163 174 217 346 154 157 219 213 251 354 263 259 325 306 313 291 270 239 217
323 317 204 257 204 8 79 105 211 207 297 330 356 98 238 188 169 144 222 236 212 166 183 165 263 282 218 177 128 304 251 206 139 59 76 245 295 317 349 338 355 339 33 9 344
318 340 268 128 151 85 82 227 237 238 337 2 76 35 146 197 155 160 189 234 232 185 161 220 302 224 278 113 249 158 175 297 3 173 254 278 285 246 326 326 335 349 53 56 79
2 7 282 151 122 54 169 231 265 256 349 12 353 297 232 190 202 182 196 272 147 204 171 155 161 258 31 181 238 323 273 70 130 124 186 227 263 227 277 296 328 20 28 24 3
345 16 339 32 60 45 173 202 255 281 25 293 211 216 218 197 200 181 190 174 325 183 139 201 159 237 242 255 274 206 151 131 112 277 169 157 279 313 319 302 150 56 50 27 24
18 268 326 57 135 283 284 283 242 264 245 224 255 214 274 193 152 177 277 122 333 23 328 185 8 40 347 357 4 129 148 125 106 78 197 127 258 335 352 338 322 118 136 129 98
63 25 332 55 100 122 11 292 274 269 256 199 239 208 170 197 304 174 176 13 0 42 47 79 120 151 183 216 178 269 306 180 130 117 190 218 167 167 347 344 356 6 10 349 5
28 327 187 268 305 11 124 306 291 294 260 262 294 224 187 198 159 181 209 336 39 341 48 90 116 197 255 252 192 239 244 207 165 172 152 225 158 158 151 46 347 331 347 357 350
41 31 350 291 318 351 75 260 278 290 235 264 218 265 195 184 186 188 142 169 192 1 83 356 199 121 301 261 232 214 172 115 66 63 121 161 84 95 118 65 22 358 339 330 326
329 328 107 306 357 47 225 310 282 322 261 236 263 120 104 182 174 173 181 173 164 152 187 100 126 74 271 351 348 333 349 109 96 22 138 124 321 359 69 79 30 345 330 319 318